www.pogodaiklimat.ru
Время
(UTC), дата
01 4.04
02 4.04
03 4.04
04 4.04
05 4.04
06 4.04
07 4.04
08 4.04
09 4.04
10 4.04
11 4.04
12 4.04
13 4.04
14 4.04
15 4.04
16 4.04
17 4.04
18 4.04
19 4.04
20 4.04
21 4.04
22 4.04
23 4.04
00 5.04
01 5.04
02 5.04
03 5.04
04 5.04
05 5.04
06 5.04
07 5.04
08 5.04
09 5.04
10 5.04
11 5.04
12 5.04
13 5.04
14 5.04
15 5.04
16 5.04
17 5.04
18 5.04
19 5.04
20 5.04
21 5.04
22 5.04
23 5.04
00 6.04
01 6.04
02 6.04
03 6.04
04 6.04
05 6.04
06 6.04
07 6.04
08 6.04
09 6.04
10 6.04
11 6.04
12 6.04
13 6.04
14 6.04
15 6.04
16 6.04
17 6.04
18 6.04
19 6.04
20 6.04
21 6.04
22 6.04
23 6.04
00 7.04
01 7.04
02 7.04
03 7.04
04 7.04
05 7.04
06 7.04
07 7.04
08 7.04
09 7.04
10 7.04
11 7.04
12 7.04
13 7.04
14 7.04
15 7.04
16 7.04
17 7.04
18 7.04
19 7.04
20 7.04
21 7.04
22 7.04
23 7.04
00 8.04
01 8.04
02 8.04
03 8.04
04 8.04
05 8.04
06 8.04
07 8.04
08 8.04
09 8.04
10 8.04
11 8.04
12 8.04
13 8.04
14 8.04
15 8.04
16 8.04
17 8.04
18 8.04
19 8.04
20 8.04
21 8.04
22 8.04
23 8.04
00 9.04
01 9.04
02 9.04
03 9.04
04 9.04
05 9.04
06 9.04
07 9.04
08 9.04
09 9.04
10 9.04
11 9.04
12 9.04
13 9.04
14 9.04
15 9.04
16 9.04
17 9.04
18 9.04
19 9.04
20 9.04
21 9.04
22 9.04
23 9.04
00 10.04
01 10.04
02 10.04
03 10.04
04 10.04
05 10.04
06 10.04
07 10.04
08 10.04
09 10.04
10 10.04
11 10.04
12 10.04
13 10.04
14 10.04
15 10.04
16 10.04
17 10.04
18 10.04
19 10.04
20 10.04
21 10.04
22 10.04
23 10.04
Ветер
(напр.,м/с)
Видим. Явления Облачность Т
(С)
Тd
(С)
f
(%)
Тe
(С)
Тes
(С)
Комфортность P
(гПа)
Po
(гПа)
Тmin
(С)
Tmax
(С)
R
(мм)
R24
(мм)
S
(см)
З 2 25 км 9/9 1500 м
[Sc]
+1.5 -0.9 84 -2 -2 по сезону 1021.5 991.3
З 1 25 км 9/9 1500 м
[Sc]
+1.3 -1.1 84 -1 -1 тепло 1021.8 991.5
З 3 30 км 9/9 1500 м
[Sc]
+1.3 -1.4 82 -3 -3 прохладно 1022.1 991.8
З 2 30 км 8/4 600 м
[Sc Ac und]
+0.9 -1.7 83 -3 -3 по сезону 1022.3 992.0
З 3 30 км 5/3 600 м
[Sc Ac trans]
+0.6 -1.8 84 -4 -4 по сезону 1022.7 992.3
З 3 40 км 8/6 300 м
[Sc Ac trans]
+1.4 -1.7 80 -3 -2 прохладно 1023.0 992.7 +0.6 +3.6 0.5
Ю 1 40 км 5/5 450 м
[Sc]
+2.3 -1.0 79 +1 +3 по сезону 1022.8 992.6
З 3 50 км 6/6 300 м
[Cu Sc]
+3.1 -1.5 72 -1 +2 по сезону 1023.1 993.0
СВ 2 50 км 6/5 600 м
[Cu med, cong Ac trans Ci fib]
+4.9 -2.2 60 +3 +7 по сезону 1022.8 992.9
З 3 50 км 8/6 600 м
[Cu med, cong Ac trans Ci fib]
+4.5 -3.8 55 +1 +4 по сезону 1022.8 992.8
ЮЗ 3 40 км 9/9 600 м
[Cu Sc]
+4.2 -3.1 59 +1 +2 по сезону 1022.5 992.5
В 2 40 км в посл. час ливневой снег 8/8 600 м
[Cu Sc]
+6.3 -1.8 56 +4 +7 холодно 1021.5 991.8 0.0
З 4 50 км 8/8 600 м
[Cu Sc]
+6.0 -2.6 54 +3 +4 прохладно 1020.9 991.2
ЮЗ 2 50 км 8/8 600 м
[Cu Sc]
+6.1 -2.3 55 +4 +5 по сезону 1020.1 990.4
Ю 3 50 км 5/5 600 м
[Cu Sc]
+6.0 -3.9 49 +3 +5 холодно 1019.6 989.9
ЮЗ 5 50 км 5/5 1500 м
[Sc]
+6.5 -4.0 47 +3 +3 прохладно 1018.9 989.3
ЮЗ 3 50 км 4/4 1500 м
[Sc]
+4.5 -3.8 55 +1 +1 прохладно 1018.7 988.9
ЮЗ 3 40 км {ливн. дождь} 3/3 1500 м
[Sc]
+2.5 -3.8 63 -1 -1 очень
холодно
1018.9 988.8 +1.3 +6.9 0.0
ЮЗ 2 30 км ясно +2.6 -4.0 62 -0 -0 прохладно 1018.5 988.5
ЮЗ 1 15 км ясно +0.6 -3.7 73 -1 -1 прохладно 1018.3 988.1
ЮЗ 1 15 км ясно -0.2 -3.9 76 -2 -2 холодно 1017.8 987.5
ЮЗ 1 15 км ясно -1.0 -4.2 79 -3 -3 прохладно 1017.2 986.8
ЮЗ 1 15 км ясно -1.8 -4.1 84 -4 -4 по сезону 1016.4 985.9
штиль 0 15 км ясно -2.0 -4.3 84 -3 -3 прохладно 1015.3 984.9
штиль 0 15 км ясно -2.8 -5.1 84 -4 -4 прохладно 1014.6 984.1
штиль 0 15 км ясно -3.1 -4.8 88 -4 -4 по сезону 1013.6 983.1
штиль 0 15 км ясно -3.4 -5.0 89 -5 -5 холодно 1012.6 982.1
штиль 0 15 км ясно -3.6 -5.0 90 -5 -5 прохладно 1011.5 981.0
штиль 0 15 км ясно -3.1 -4.5 90 -4 -4 по сезону 1010.1 979.7
С 1 15 км 1/0
[Ci fib]
+0.5 -2.1 83 -1 +1 прохладно 1008.8 978.8 -3.9 +3.3 0.0
Ю 3 40 км 3/0
[Ci]
+5.5 -2.6 56 +3 +6 тепло 1007.3 977.9
ЮЗ 8 50 км 5/0
[Ci sp]
+8.8 -2.5 45 +5 +6 тепло 1006.0 977.0
ЮЗ 10
{14}
50 км 8/0 +10.6 -1.5 43 +7 +7 по сезону 1004.6 975.8
Ю 8-14
{16}
50 км 9/0
[Cs]
+11.3 -1.2 42 +8 +10 тепло 1003.5 974.8
ЮЗ 10
{13}
50 км 9/0
[Cs]
+12.5 -1.8 37 +9 +10 тепло 1002.1 973.6
Ю 8-13
{16}
50 км 9/0
[Ac As]
+12.6 -2.1 36 +10 +11 по сезону 1001.1 972.6
ЮЗ 9-15
{15}
50 км 9/1 1000 м
[Cu hum Ac As]
+14.3 -1.4 34 +12 +12 тепло 999.8 971.5
ЮЗ 8
{17}
50 км 9/0
[Ac As]
+12.5 -2.6 35 +10 +10 тепло 999.7 971.2
Ю 6
{17}
50 км 10/0
[Ac As]
+11.8 -2.4 37 +9 +10 по сезону 998.8 970.3
Ю 6 50 км 9/0
[Ac As]
+12.0 -2.6 36 +10 +10 тепло 997.7 969.2
Ю 5 50 км 9/4 1000 м
[Cb calv Ac As]
+11.9 -2.7 36 +10 +10 тепло 997.2 968.7
ЮЗ 11-16
{17}
50 км 9/9 1000 м
[Cb cap]
+11.3 -0.5 44 +8 +8 по сезону 998.1 969.6 +0.5 +14.5
З 6-12
{23}
8000 м слаб. ливневой дождь 10/9 600 м
[Cb cap]
+6.6 +3.9 83 +2 +2 прохладно 1000.6 971.5
З 5 10 км слаб. ливневой дождь 10/9 600 м
[Cb cap]
+2.5 +0.9 89 -3 -3 холодно 1002.4 972.8
З 6
{23}
10 км слаб. ливневой снег 10/9 180 м
[Cb cap]
+1.2 -0.1 91 -5 -5 очень
холодно
1004.5 974.7
З 7
{10}
10 км слаб. ливневой снег 10/9 120 м
[Cb cap]
+0.6 -1.5 86 -6 -6 очень
холодно
1005.7 975.8
З 4 3200 м снег {ливн. снег} 10/10 180 м
[Sc]
+0.1 -1.5 89 -5 -5 прохладно 1005.8 975.9
ЮЗ 5
{23}
15 км слаб. снег 10/10 180 м
[Sc]
+0.1 -1.2 91 -6 -6 холодно 1006.2 976.3 3
ЮЗ 5 8000 м слаб. снег 10/10 180 м
[Sc]
-0.2 -1.3 92 -6 -6 прохладно 1006.6 976.6
ЮЗ 5 8000 м слаб. снег 10/10 180 м
[Sc]
-0.2 -1.2 93 -6 -6 по сезону 1006.8 976.8
ЮЗ 5 10 км слаб. снег 10/10 180 м
[Sc]
0.0 -1.4 90 -6 -6 холодно 1007.1 977.1
З 5 20 км в посл. час снег 10/9 600 м
[Sc]
-0.2 -2.1 87 -6 -6 прохладно 1007.3 977.3
З 5 25 км 10/9 600 м
[Sc]
-0.3 -2.7 84 -6 -6 по сезону 1007.8 977.8
ЮЗ 6 15 км слаб. снег 9/6 600 м
[Sc Ci sp]
-0.2 -2.4 85 -7 -7 очень
холодно
1008.1 978.1 -0.4 +11.3 3 2.9 <0.5
ЮЗ 5 15 км слаб. снег 10/9 330 м
[Sc]
-0.1 -2.2 86 -6 -6 прохладно 1008.0 978.0
ЮЗ 6 20 км слаб. снег 10/9 400 м
[Sc]
-0.2 -2.6 84 -7 -7 по сезону 1008.1 978.1
ЮЗ 7 30 км в посл. час снег 10/9 420 м
[Sc]
+0.6 -2.6 79 -6 -6 очень
холодно
1008.0 978.1
З 6 30 км 9/6 300 м
[Cu Sc Ci sp]
+1.4 -2.9 73 -5 -3 холодно 1007.6 977.8
ЮЗ 6
{10}
40 км 8/6 600 м
[Cu med, cong Ac trans Ci fib]
+2.2 -2.9 69 -3 -2 по сезону 1007.6 977.8
З 6
{10}
40 км {снег} 8/6 600 м
[Cu med, cong Ci fib]
+2.7 -3.4 64 -3 -1 очень
холодно
1007.1 977.4 0.0
З 6 40 км 6/4 600 м
[Cu med, cong Ac trans Ci fib]
+2.4 -5.5 56 -3 -1 очень
холодно
1006.6 976.9
ЮЗ 5
{10}
40 км 6/4 1000 м
[Cu med, cong Ci sp]
+3.1 -5.3 54 -2 0 холодно 1006.4 976.8
ЮЗ 5
{10}
8000 м слаб. ливневой снег 8/5 1000 м
[Cb cap Ci ing]
+1.3 -2.8 74 -4 -4 очень
холодно
1006.7 976.9
ЮЗ 5 40 км в посл. час ливневой снег 5/1 1000 м
[Cb cap Ac cuf Ci ing]
+2.8 -4.0 61 -2 -2 холодно 1006.5 976.8
ЮЗ 5 40 км 5/1 1500 м
[Cu med, cong Ac trans Ci sp]
+1.2 -4.1 68 -4 -4 холодно 1006.7 976.9
Ю 2
{10}
30 км {ливн. снег} 3/0
[Ac trans Ci sp]
+0.4 -4.6 69 -3 -3 очень
холодно
1007.0 977.1 -0.3 +4.5 0.0
ЮЗ 1 20 км 3/0
[Ac trans Ci sp]
-1.6 -4.8 79 -4 -4 холодно 1007.5 977.3
ЮЗ 3 15 км 3/0
[Ci sp]
-1.9 -5.1 79 -7 -7 холодно 1007.7 977.5
Ю 3 10 км 1/0
[Ci sp]
-1.1 -3.9 81 -6 -6 очень
холодно
1007.7 977.6
ЮЗ 2 10 км ясно -1.8 -3.8 86 -6 -6 холодно 1007.5 977.3
ЮЗ 2 10 км ясно -2.0 -3.6 89 -6 -6 прохладно 1007.2 977.0
ЮЗ 3 15 км ясно -2.6 -4.5 87 -8 -8 очень
холодно
1007.3 977.0
ЮЗ 2 15 км ясно -1.8 -3.8 86 -6 -6 прохладно 1007.3 977.1
Ю 3 10 км 3/3 1500 м
[Sc]
-2.3 -3.9 89 -7 -7 по сезону 1007.7 977.5
ЮЗ 1 10 км ясно -3.5 -5.4 87 -6 -6 холодно 1008.2 977.8
Ю 3 10 км 3/3 1000 м
[Sc]
-2.6 -4.2 89 -8 -8 холодно 1008.4 978.1
ЮЗ 1 10 км 8/8 1000 м
[Sc]
-2.0 -3.7 88 -4 -4 по сезону 1008.8 978.6
З 6 15 км в посл. час снег 8/6 1000 м
[Sc Ci sp]
-0.1 -2.6 83 -7 -6 холодно 1008.9 978.9 -3.9 +0.4 0.0 0.0
ЮЗ 6 20 км слаб. ливневой снег 8/8 450 м
[Cu Sc]
+1.2 -2.2 78 -5 -5 по сезону 1009.4 979.5
ЮЗ 5 15 км слаб. крупа 8/8 450 м
[Cb calv]
+0.9 -2.0 81 -5 -4 по сезону 1010.1 980.1
ЮЗ 5 30 км в посл. час крупа {ливн. снег} 9/9 600 м
[Cb calv]
+2.4 -2.7 69 -3 -2 холодно 1009.9 980.1
ЮЗ 5
{13}
15 км ливневой снег 8/8 600 м
[Cb cap]
+1.6 -0.8 84 -4 -3 прохладно 1010.2 980.3
ЮЗ 6 8000 м слаб. ливневой снег 9/9 600 м
[Cb cap]
+2.0 -0.4 84 -4 -4 по сезону 1010.5 980.6
З 8
{13}
50 км в посл. час ливневой снег 5/4 600 м
[Cb cap Ci ing]
+2.8 -2.3 69 -4 -2 очень
холодно
1010.4 980.6 0.5
З 10
{17}
2000 м ливневой снег 10/9 600 м
[Cb cap]
+0.7 -0.9 89 -7 -7 очень
холодно
1011.2 981.2
З 6
{12}
40 км в посл. час ливневой снег 6/3 600 м
[Cu med, cong Ci ing]
+2.7 -0.6 79 -3 -2 холодно 1011.1 981.3
З 4
{17}
40 км в посл. час ливневой снег 6/5 600 м
[Cb cap Ci ing]
+3.6 -1.6 69 -1 0 холодно 1011.3 981.6
ЮЗ 4 35 км в посл. час ливневой снег 8/6 600 м
[Cb cap Ci ing]
+3.7 -1.7 68 -1 -0 прохладно 1011.6 981.9
ЮЗ 5 30 км 6/6 600 м
[Cb cap Ci ing]
+2.8 -2.3 69 -2 -2 прохладно 1011.9 982.1
ЮЗ 4
{17}
35 км в посл. час ливневой снег 8/6 1000 м
[Cb cap Ci ing]
+1.1 -2.0 80 -4 -4 очень
холодно
1013.2 983.2 -0.1 +5.1 0.6
ЮЗ 7 6000 м слаб. ливневой снег 9/9 1000 м
[Cb cap]
+0.6 -0.9 90 -6 -6 очень
холодно
1014.2 984.1
Ю 4 15 км слаб. ливневой снег 6/5 1000 м
[Cb cap Ac trans]
0.0 -1.0 93 -6 -6 холодно 1014.7 984.5
ЮЗ 3 20 км в посл. час ливневой снег 8/6 270 м
[Sc Ac trans]
-0.2 -1.3 92 -5 -5 очень
холодно
1014.9 984.7
Ю 3 20 км 9/6 1500 м
[Sc Ac und]
-0.5 -1.5 93 -5 -5 прохладно 1015.2 984.9
ЮЗ 2 15 км 8/3 1500 м
[Sc Ac und]
-1.4 -2.5 92 -5 -5 по сезону 1015.3 984.9
Ю 2 15 км {ливн. снег} 8/4 1500 м
[Sc Ac trans]
-1.1 -2.4 91 -5 -5 холодно 1015.1 984.8 0.2
Ю 3 15 км 5/3 1500 м
[Sc Ac trans]
-1.5 -3.4 87 -6 -6 прохладно 1015.2 984.8
ЮЗ 2 15 км ясно -2.2 -3.8 89 -6 -6 по сезону 1015.3 984.8
З 1 20 км 3/0
[Ac und]
-2.7 -4.1 90 -5 -5 холодно 1015.4 984.9
ЮЗ 2 30 км 9/9 600 м
[Sc]
-2.4 -4.1 88 -6 -6 прохладно 1015.7 985.2
ЮЗ 4 1200 м ливневой снег 10/10 270 м
[Cb cap]
-0.7 -1.8 92 -6 -6 по сезону 1015.8 985.5
ЮЗ 5 2000 м ливневой снег 10/10 120 м
[Cb cap]
+0.1 -0.5 96 -6 -6 холодно 1016.4 986.2 -3.3 +1.5 1 1.6 2
ЮЗ 8
{12}
10 км ливневой снег 10/10 300 м
[Cb cap]
+0.9 -0.7 89 -6 -6 по сезону 1017.1 986.9
ЮЗ 8 10 км ливневой снег 9/9 450 м
[Cb cap]
+1.7 -0.7 84 -5 -5 по сезону 1017.9 987.8
З 7
{12}
20 км в посл. час ливневой снег 9/8 600 м
[Cu Sc Ci sp]
+2.9 -0.2 80 -3 -3 холодно 1018.7 988.7
З 7-12
{12}
40 км 9/8 600 м
[Cu med, cong Ci sp]
+3.9 -1.5 68 -2 -1 по сезону 1019.1 989.2
З 4
{14}
40 км в посл. час ливневой снег 6/5 600 м
[Cb cap Ci fib]
+4.3 -1.3 67 0 +4 по сезону 1019.5 989.6
ЮЗ 6
{14}
40 км в посл. час ливневой снег 8/6 600 м
[Cb cap Ci fib]
+4.8 0.0 71 -0 +2 холодно 1020.1 990.3 0.2
З 8
{11}
40 км в посл. час ливневой снег 8/6 600 м
[Cb cap Ci sp]
+4.4 -2.0 63 -1 -1 прохладно 1020.6 990.7
З 9-14
{17}
3000 м ливневой снег 9/8 600 м
[Cb cap Ci sp]
+1.6 -0.5 86 -6 -6 холодно 1022.2 991.9
ЮЗ 8
{17}
40 км в посл. час ливневой снег 4/4 1000 м
[Cu med, cong]
+3.2 +0.3 81 -3 -3 очень
холодно
1022.2 992.1
З 6 10 км слаб. ливневой дождь 9/9 1000 м
[Cb cap]
+2.3 +0.4 87 -4 -4 холодно 1022.9 992.7
Ю 4 20 км в посл. час ливневой дождь 6/6 1000 м
[Sc]
+2.3 +0.5 88 -3 -3 по сезону 1023.5 993.3
ЮЗ 2
{17}
10 км {ливн. снег} 6/6 600 м
[Cb cap]
+1.6 0.0 89 -2 -2 холодно 1024.3 994.0 0.0 +6.1 0.7
Ю 2 10 км 8/8 1500 м
[Sc]
+1.6 +0.1 90 -2 -2 прохладно 1025.1 994.8
Ю 2 7000 м дымка 9/9 1500 м
[Sc]
+1.3 +0.1 92 -2 -2 по сезону 1025.6 995.2
ЮЗ 1 7000 м дымка 9/9 1500 м
[Sc]
+0.6 -0.7 91 -1 -1 прохладно 1026.0 995.5
ЮЗ 1 6000 м дымка 5/4 1500 м
[Sc Ac trans]
-0.3 -1.3 93 -2 -2 по сезону 1026.4 995.8
З 1 5000 м дымка 6/6 1500 м
[Sc]
-1.4 -2.4 93 -4 -4 по сезону 1026.7 996.0
штиль 0 5000 м дымка 4/4 1500 м
[Sc]
-1.3 -2.1 94 -3 -3 прохладно 1026.8 996.1
штиль 0 2500 м дымка ясно -2.2 -2.9 95 -4 -4 по сезону 1026.9 996.1
штиль 0 3000 м дымка ясно -2.7 -3.2 96 -4 -4 по сезону 1026.9 996.0
штиль 0 4000 м дымка ясно -3.1 -3.6 96 -4 -4 прохладно 1026.7 995.8
штиль 0 3000 м дымка 1/0
[Ci fib]
-3.2 -3.7 96 -4 -4 по сезону 1026.6 995.7
штиль 0 5000 м дымка 1/0
[Ci fib]
-2.7 -3.1 97 -4 -3 по сезону 1026.8 995.9
ЮЗ 1 20 км ясно +0.2 -0.8 93 -2 +1 по сезону 1026.2 995.7 -3.6 +1.9 0.7
Ю 2 25 км 1/0
[Ci fib]
+2.6 -1.4 75 -0 +5 по сезону 1025.6 995.4
Ю 2 40 км 1/0
[Ci fib]
+5.8 -3.3 52 +4 +12 тепло 1024.8 994.9
Ю 4 50 км 3/0
[Ci]
+7.2 -4.0 45 +4 +11 по сезону 1024.0 994.3
Ю 5-10
{10}
50 км 5/0
[Ci sp]
+9.2 -3.4 41 +6 +12 тепло 1023.0 993.5
ЮЗ 6 50 км 8/0
[Cs]
+9.9 -3.1 40 +7 +10 тепло 1022.1 992.7
ЮЗ 8
{10}
50 км 9/0
[Cs]
+10.8 -3.3 37 +8 +9 тепло 1021.6 992.3
ЮЗ 7 50 км 9/0
[Cs]
+10.6 -3.2 38 +8 +10 тепло 1020.7 991.4
ЮЗ 7 50 км 9/0
[Cs]
+11.6 -4.6 32 +9 +10 тепло 1019.8 990.7
ЮЗ 7 50 км 9/0
[Cs]
+11.7 -4.5 32 +9 +10 тепло 1019.4 990.3
ЮЗ 5 50 км 9/0
[Cs]
+11.0 -3.9 35 +9 +9 тепло 1019.1 989.9
Ю 2 40 км 8/0
[Ac lent Cs]
+9.6 -4.0 38 +9 +9 тепло 1018.8 989.5
З 1 30 км 8/0
[Ac und Cs]
+8.3 -2.4 47 +8 +8 тепло 1019.1 989.6 +0.2 +12.0
СВ 1 15 км 8/0
[Ac As Cs]
+5.8 -1.4 60 +5 +5 тепло 1019.2 989.5
СЗ 1 15 км 6/0
[Ac As Cs]
+4.8 -1.4 64 +4 +4 тепло 1019.0 989.2
С 1 15 км 5/0
[Cs]
+2.7 -2.4 69 +1 +1 по сезону 1019.1 989.1
штиль 0 10 км 6/0
[Ac und Ci sp]
+3.0 -2.1 69 +2 +2 по сезону 1019.0 989.0
штиль 0 15 км 8/0
[Ac und Ci sp]
+2.2 -2.5 71 +1 +1 тепло 1018.7 988.6
С 2 15 км 9/0
[Ac As]
+1.3 -2.3 77 -2 -2 холодно 1018.5 988.3
СВ 2 20 км 9/0
[Ac As]
+1.9 -1.9 76 -1 -1 по сезону 1017.9 987.8
С 2 20 км 8/0
[Ac trans Cs]
+0.7 -2.5 79 -3 -3 по сезону 1017.8 987.6
СВ 2 15 км 8/0
[Ac trans Cs]
+1.1 -2.0 80 -2 -2 прохладно 1017.7 987.5
СВ 1 20 км 8/0
[Ac trans Cs]
+0.6 -2.1 82 -1 -1 по сезону 1017.8 987.6
С 1 20 км 8/0
[Ac trans Ci sp]
+1.4 -1.2 83 -0 0 по сезону 1018.1 987.9
СВ 1 20 км 8/0
[Ci sp]
+5.9 +0.6 69 +5 +8 по сезону 1017.9 988.2 +0.4 +8.3
штиль 0 40 км 4/0
[Ci sp]
+10.9 0.0 47 +11 +17 тепло 1017.5 988.4
Ю 1 40 км 4/0
[Ci sp]
+13.3 +1.0 43 +14 +23 тепло 1017.3 988.4
Ю 4 40 км 5/0
[Ci sp]
+15.7 -0.5 33 +15 +22 тепло 1016.7 988.1
Ю 5 40 км 6/0
[Ci sp]
+17.1 -2.1 27 +17 +22 тепло 1016.5 988.0
ЮЗ 5
{8}
40 км 5/0
[Ci sp]
+18.2 -0.6 28 +18 +24 тепло 1016.2 987.8
Ю 5
{8}
40 км 6/0
[Ac lent Ci sp]
+19.2 -0.3 27 +19 +24 тепло 1016.0 987.7
ЮЗ 7 50 км 6/0
[Ac lent Ci sp]
+19.0 -1.0 26 +18 +21 тепло 1015.9 987.6
ЮЗ 5 50 км 6/0
[Ac lent Ci sp]
+18.9 0.0 28 +19 +21 тепло 1015.7 987.4
ЮЗ 6 50 км 6/0
[Ac und Ci sp]
+18.7 -0.7 27 +18 +19 тепло 1015.7 987.4
ЮЗ 4 50 км 8/0
[Ac und Ci sp]
+17.7 +0.3 31 +18 +18 тепло 1015.9 987.5
ЮЗ 2 50 км 8/0
[Ac trans Ci sp]
+16.0 -0.3 33 +16 +16 тепло 1016.1 987.5
ЮЗ 1 30 км 6/0
[Ac trans Ci sp]
+13.0 +1.9 47 +13 +13 тепло 1016.9 988.0 +5.9 +19.2
Ю 2 15 км 6/0
[Ac trans Ci sp]
+12.0 +1.0 47 +11 +11 тепло 1017.6 988.6
штиль 0 15 км 4/0
[Ci sp]
+9.3 +1.4 58 +9 +9 тепло 1018.2 988.9
З 1 15 км ясно +7.5 +1.1 64 +7 +7 по сезону 1018.8 989.3
СВ 1 15 км ясно +6.1 +1.0 70 +5 +5 по сезону 1019.4 989.7
СВ 2 10 км ясно +4.8 +0.9 76 +2 +2 по сезону 1019.4 989.6
Местоположение метеостанции Краков (Польша): широта 50.08 долгота 19.80 высота над уровнем моря 237 м.
В архиве по умолчанию представлена погода в Кракове за последнюю неделю. Архивные данные за месяц целиком и за предыдущие месяцы, начиная с января 2011 года, Вы можете получить, выбрав интересующий диапазон дат из раскрывающегося списка и нажав кнопку "Найти!".
*Определитесь, кто Вы:
Внимание! Время в таблицах - всемирное. Для получения местного времени необходимо прибавить поправку, которая равна 1 ч.
Смотрите также архив погоды в соседних городах и на ближайших метеорологических станциях:
Партнеры нашего сайта:      
Пояснения к столбцам:
  • Ветер - указаны скорость ветра в м/с - средняя за 10 мин, порывы в срок и между сроками (в фигурных скобках) и направление, откуда дует ветер: С - северный,
  • СВ - северо-восточный, В - восточный, ЮВ - юго-восточный, Ю - южный, ЮЗ - юго-западный, З - западный, СЗ - северо-западный.
  • Видимость - горизонтальная дальность видимости в метрах или километрах. При видимости от 1 до 10 км при отсутствии осадков обычно наблюдается дымка, при ухудшении видимости до 1 км и менее - туман. В сухую погоду видимость может ухудшаться дымом, пылью или мглою.
  • Явления - указаны атмосферные явления, наблюдавшиеся в срок или в последний час перед сроком; фигурными скобками обозначены явления, наблюдавшиеся между сроками (за 1-3 часа до срока); квадратными скобками обозначены град или гололедные отложения с указанием их диаметра в мм.
  • Облачность - указаны через наклонную черту общая и нижняя облачность в баллах и высота нижней границы облаков в метрах; квадратными скобками обозначены формы облаков: Ci - перистые, Cs - перисто-слоистые, Cc - перисто-кучевые, Ac - высококучевые, As - высокослоистые, Sc - слоисто-кучевые, Ns - слоисто-дождевые, Cu - кучевые, Cb - кучево-дождевые. Подробнее классификацию облаков см. в Атласе облаков (PDF).
  • T - Температура воздуха - температура, измеренная на высоте 2 м над землей.
  • Td - Температура точки росы - температура, при понижении до которой содержащийся в воздухе водяной пар достигнет насыщения.
  • f - Относительная влажность воздуха - влажноcть воздуха, измеренная на высоте 2 м над землей.
  • Te - Эффективная температура - температура, которую ощущает одетый по сезону человек в тени. Характеристика душности погоды. При расчете учитывается влияние влажности воздуха и скорости ветра на теплоощущения человека.
  • Tes - Эффективная температура на солнце - температура, которую ощущает человек, с поправкой на солнечный нагрев. Характеристика знойности погоды. Зависит от высоты солнца над горизонтом, облачности и скорости ветра. Ночью, в пасмурную погоду, а также при ветре 12 м/с и более поправка равна нулю.
  • P - Атмосферное давление - приведенное к уровню моря атмосферное давление.
  • Po - Атмосферное давление - измеренное на уровне метеостанции атмосферное давление.
  • Tmin - Минимальная температура - минимум температуры воздуха на высоте 2 м над землей.
  • Tmax - Максимальная температура - максимум температуры воздуха на высоте 2 м над землей.
  • R - Количество осадков - Количество выпавших осадков за период времени, мм. При наведении курсора мыши на число - период времени, за который выпало указанное количество осадков.
  • R24 - Количество осадков - Количество выпавших осадков за 24 часа, мм.
  • S - Снежный покров - Высота снежного покрова, см. При наведении курсора мыши на число - состояние снежного покрова и степень покрытия местности в баллах.